Showing default

GNOMES-4, 58462

Orbit data source: Space-Track

GNOMES-4, 58462 is a payload satellite owned by PlanetiQ (US) in SSO that was launched on Fri, 01 Dec 2023 UTC via an FALCON 9 launch vehicle from the Air Force Western Test Range (AFWTR). Payload-class satellites include a variety of spacecraft equipped with specific instruments for various scientific and technological missions. These include communications satellites like Starlink; space stations such as the ISS; scientific satellites like the Hubble; Earth observation satellites from companies like Planet Labs, Umbra, and HawkEye 360; GPS; miniature CubeSats for education and research; and military/defense satellites.

Loading next visibility...
Identifier
58462, 2023-185A
Orbit
SSO
Country
Flag of USUS
Related business
Manufacturer
Blue Canyon
Mission
Operational Commercial Communications
Bus & Motor
XSAT, Unknown motor
Mass
~30 kg wet, ~30 kg dry
Launch date (UTC)
2023-12-01 (2 years ago)
Launch vehicle
FALCON 9
Launch site
Air Force Western Test Range (AFWTR)
Object type
Payload
Rocket body
Debris
Shape & HBR
Box + 2 Pan, 0.3 m
Radar Cross Section
0.162 m², Medium (>0.1 m² and < 1m²)

Expand to show TLE details & history
Last TLE update: 15 hours ago

TLE from 15 hours ago
0 GNOMES-4
1 58462U 23185A   25261.32763523 -.00001689  00000-0 -13771-3 0  9999
2 58462  97.5349 323.0056 0013227 123.9672 236.2809 14.98118189 98544
Epoch: 2025-09-18T07:51Z
TLE epoch observation values (Epoch: 2025-09-18T07:51:47.683Z)
Latitude
-0.00014°
Longitude
-152.43388°
Altitude
580.881 km
Speed
7.567 km/s
True Right ascension
21h 32m 01s
True Declination
0° 00' 00"
Sunlit
Object was in full shadow at epoch
Visualization orbit readout
Latitude
Unknown
Longitude
Unknown
Altitude
Unknown
Speed
Unknown
Apparent Right ascension
Unknown
Apparent Declination
Unknown
Sunlit
N/A
Visualization observer readout
Local Sidereal Time
15:22:18
Azimuth
Unknown
Elevation
Unknown
Doppler factor
Unknown
Orbital elements
Apogee altitude
578.901 km
Perigee altitude
560.522 km
Semi-major axis
6,947.849 km
Eccentricity
0.00132
Inclination
97.5349°
RAAN
323.0056°
Arg. of periapsis
123.9672°
True anomaly
236.15494°
Mean anomaly
236.2809°
Eccentric anomaly
236.21791°
Mean motion
3.74772 °/min
Orbital period
96.06 mins
BSTAR
-0.00013771
Loading maneuver chart data...
Computing Atmospheric mass density...
Loading historical data...
Loading historical data...
Loading historical data...
Loading historical data...
Loading historical data...
Loading historical data...
Loading historical data...

Documentation

Showing up to 5 results
|